PY1LEO-13 Weather Reports


Display with metric or nautical units.
time (UTC)temp
F
wind
direction
speed
MPH
gust
MPH
rain 1hr
in
rain 24hr
in
rain mn
in
humidity
%
barometer
mb
20260505124605 81 0.0 0.0 0.00 0.00 0.00 55 1021.8
20260505124105 80 0.0 0.0 0.00 0.00 0.00 58 1021.9
20260505123605 79 0.0 0.0 0.00 0.00 0.00 58 1021.9
20260505123106 79 0.0 0.0 0.00 0.00 0.00 60 1021.9
20260505122607 79 0.0 0.0 0.00 0.00 0.00 58 1021.9
20260505122105 79 0.0 0.0 0.00 0.00 0.00 58 1021.9
20260505121605 79 0.0 0.0 0.00 0.00 0.00 57 1021.9
20260505121105 80 0.0 0.0 0.00 0.00 0.00 57 1021.8
20260505120605 81 0.0 0.0 0.00 0.00 0.00 55 1021.7
20260505120105 79 0.0 0.0 0.00 0.00 0.00 58 1021.5
20260505115608 79 0.0 0.0 0.00 0.00 0.00 58 1021.5
20260505115105 79 0.0 0.0 0.00 0.00 0.00 58 1021.5
20260505114605 79 0.0 0.0 0.00 0.00 0.00 58 1021.4
20260505114105 78 0.0 0.0 0.00 0.00 0.00 59 1021.4
20260505113605 79 0.0 0.0 0.00 0.00 0.00 59 1021.3
20260505113105 78 0.0 0.0 0.00 0.00 0.00 60 1021.3
20260505112605 78 0.0 0.0 0.00 0.00 0.00 60 1021.2
20260505112105 78 0.0 0.0 0.00 0.00 0.00 59 1021.2
20260505111605 78 0.0 0.0 0.00 0.00 0.00 60 1021.2
20260505111105 78 0.0 0.0 0.00 0.00 0.00 60 1021.1
20260505110605 78 0.0 0.0 0.00 0.00 0.00 60 1021.1
20260505110105 78 0.0 0.0 0.00 0.00 0.00 59 1021.0
20260505102105 77 0.0 0.0 0.00 0.00 0.00 59 1020.7
20260505101605 77 0.0 0.0 0.00 0.00 0.00 60 1020.7
20260505101105 77 0.0 0.0 0.00 0.00 0.00 61 1020.7
20260505100605 77 0.0 0.0 0.00 0.00 0.00 61 1020.6
20260505100105 77 0.0 0.0 0.00 0.00 0.00 61 1020.5
20260505095605 77 0.0 0.0 0.00 0.00 0.00 61 1020.5
20260505095105 76 0.0 0.0 0.00 0.00 0.00 61 1020.5
20260505094605 76 0.0 0.0 0.00 0.00 0.00 62 1020.4
20260505094105 76 0.0 0.0 0.00 0.00 0.00 61 1020.5
20260505093605 76 0.0 0.0 0.00 0.00 0.00 60 1020.5
20260505093105 76 0.0 0.0 0.00 0.00 0.00 58 1020.4
20260505092605 76 0.0 0.0 0.00 0.00 0.00 59 1020.3
20260505092105 76 0.0 0.0 0.00 0.00 0.00 61 1020.3
20260505091605 76 0.0 0.0 0.00 0.00 0.00 60 1020.3
20260505091105 76 0.0 0.0 0.00 0.00 0.00 61 1020.3
20260505090605 76 0.0 0.0 0.00 0.00 0.00 61 1020.2
20260505090105 76 0.0 0.0 0.00 0.00 0.00 62 1020.2
20260505085605 77 0.0 0.0 0.00 0.00 0.00 62 1020.1
20260505085105 77 0.0 0.0 0.00 0.00 0.00 62 1020.1
20260505084605 77 0.0 0.0 0.00 0.00 0.00 62 1020.1
20260505084105 77 0.0 0.0 0.00 0.00 0.00 62 1020.1
20260505083605 77 0.0 0.0 0.00 0.00 0.00 62 1020.1
20260505083105 76 0.0 0.0 0.00 0.00 0.00 62 1020.0
20260505082605 77 0.0 0.0 0.00 0.00 0.00 61 1019.9
20260505082105 77 0.0 0.0 0.00 0.00 0.00 61 1019.8
20260505081605 77 0.0 0.0 0.00 0.00 0.00 61 1019.6
20260505081105 77 0.0 0.0 0.00 0.00 0.00 61 1019.5
20260505080605 77 0.0 0.0 0.00 0.00 0.00 61 1019.4
20260505080105 77 0.0 0.0 0.00 0.00 0.00 61 1019.3
20260505075605 77 0.0 0.0 0.00 0.00 0.00 61 1019.4
20260505075107 77 0.0 0.0 0.00 0.00 0.00 61 1019.5
20260505074605 77 0.0 0.0 0.00 0.00 0.00 61 1019.6
20260505074105 77 0.0 0.0 0.00 0.00 0.00 62 1019.7
20260505073605 77 0.0 0.0 0.00 0.00 0.00 62 1019.5
20260505073105 77 0.0 0.0 0.00 0.00 0.00 62 1019.5
20260505072605 77 0.0 0.0 0.00 0.00 0.00 62 1019.5
20260505072105 77 0.0 0.0 0.00 0.00 0.00 62 1019.5
20260505071605 77 0.0 0.0 0.00 0.00 0.00 61 1019.5
20260505071105 77 0.0 0.0 0.00 0.00 0.00 62 1019.5
20260505070605 77 0.0 0.0 0.00 0.00 0.00 62 1019.5
20260505070105 77 0.0 0.0 0.00 0.00 0.00 62 1019.6
20260505065605 77 0.0 0.0 0.00 0.00 0.00 61 1019.7
20260505065105 77 0.0 0.0 0.00 0.00 0.00 61 1019.8
20260505064605 77 0.0 0.0 0.00 0.00 0.00 61 1019.7
20260505064106 77 0.0 0.0 0.00 0.00 0.00 61 1019.7
20260505063605 77 0.0 0.0 0.00 0.00 0.00 61 1019.7
20260505063105 77 0.0 0.0 0.00 0.00 0.00 60 1019.8
20260505062605 77 0.0 0.0 0.00 0.00 0.00 60 1019.9
20260505062105 77 0.0 0.0 0.00 0.00 0.00 60 1019.9
20260505061605 77 0.0 0.0 0.00 0.00 0.00 60 1019.9
20260505061105 78 0.0 0.0 0.00 0.00 0.00 60 1019.9
20260505060605 78 0.0 0.0 0.00 0.00 0.00 60 1019.9
20260505060105 78 0.0 0.0 0.00 0.00 0.00 60 1019.8
20260505055605 78 0.0 0.0 0.00 0.00 0.00 60 1019.8
20260505055105 78 0.0 0.0 0.00 0.00 0.00 60 1019.8
20260505054605 78 0.0 0.0 0.00 0.00 0.00 60 1019.7
20260505054105 78 0.0 0.0 0.00 0.00 0.00 60 1019.7
20260505053605 78 0.0 0.0 0.00 0.00 0.00 60 1019.8
20260505053105 78 0.0 0.0 0.00 0.00 0.00 60 1019.8
20260505052605 78 0.0 0.0 0.00 0.00 0.00 60 1019.8
20260505052105 78 0.0 0.0 0.00 0.00 0.00 59 1019.9
20260505051605 78 0.0 0.0 0.00 0.00 0.00 59 1020.0
20260505051105 78 0.0 0.0 0.00 0.00 0.00 59 1020.0
20260505050604 78 0.0 0.0 0.00 0.00 0.00 60 1020.0
20260505050105 78 0.0 0.0 0.00 0.00 0.00 59 1020.1
20260505041605 79 0.0 0.0 0.00 0.00 0.00 59 1020.4
20260505041104 79 0.0 0.0 0.00 0.00 0.00 59 1020.4
20260505040605 79 0.0 0.0 0.00 0.00 0.00 58 1020.5
20260505040105 79 0.0 0.0 0.00 0.00 0.00 58 1020.6
20260505035605 79 0.0 0.0 0.00 0.00 0.00 58 1020.6
20260505035104 79 0.0 0.0 0.00 0.00 0.00 58 1020.7
20260505034605 79 0.0 0.0 0.00 0.00 0.00 57 1020.8
20260505034105 79 0.0 0.0 0.00 0.00 0.00 57 1020.8
20260505033605 79 0.0 0.0 0.00 0.00 0.00 57 1020.9
20260505033104 79 0.0 0.0 0.00 0.00 0.00 56 1021.0
20260505032605 79 0.0 0.0 0.00 0.00 0.00 56 1021.0
20260505032105 79 0.0 0.0 0.00 0.00 0.00 56 1020.9
20260505031604 79 0.0 0.0 0.00 0.00 0.00 56 1020.9
20260505031104 79 0.0 0.0 0.00 0.00 0.00 56 1021.0
20260505030605 79 0.0 0.0 0.00 0.00 0.00 56 1021.0
20260505030104 79 0.0 0.0 0.00 0.00 0.00 55 1021.0
20260505025605 80 0.0 0.0 0.00 0.00 0.00 55 1021.0
20260505025104 80 0.0 0.0 0.00 0.00 0.00 54 1021.1
20260505024604 80 0.0 0.0 0.00 0.00 0.00 53 1021.1
20260505024104 80 0.0 0.0 0.00 0.00 0.00 52 1021.1
20260505023604 80 0.0 0.0 0.00 0.00 0.00 52 1021.1
20260505023105 80 0.0 0.0 0.00 0.00 0.00 51 1021.1
20260505022604 80 0.0 0.0 0.00 0.00 0.00 51 1021.0
20260505022104 80 0.0 0.0 0.00 0.00 0.00 51 1021.1
20260505021604 80 0.0 0.0 0.00 0.00 0.00 51 1021.1
20260505021104 80 0.0 0.0 0.00 0.00 0.00 50 1021.0
20260505020604 80 0.0 0.0 0.00 0.00 0.00 51 1020.9
20260505020105 80 0.0 0.0 0.00 0.00 0.00 50 1020.9
20260505015604 80 0.0 0.0 0.00 0.00 0.00 50 1020.9
20260505015104 80 0.0 0.0 0.00 0.00 0.00 50 1021.0
20260505014604 80 0.0 0.0 0.00 0.00 0.00 49 1021.0
20260505013604 79 0.0 0.0 0.00 0.00 0.00 51 1021.1
20260505013105 79 0.0 0.0 0.00 0.00 0.00 51 1021.1
20260505012604 80 0.0 0.0 0.00 0.00 0.00 51 1021.1
20260505012105 80 0.0 0.0 0.00 0.00 0.00 50 1021.0
20260505011604 80 0.0 0.0 0.00 0.00 0.00 52 1021.0
20260505011104 80 0.0 0.0 0.00 0.00 0.00 52 1021.0
20260505010604 81 0.0 0.0 0.00 0.00 0.00 52 1020.9
20260505010105 81 0.0 0.0 0.00 0.00 0.00 52 1020.9
20260505005604 81 0.0 0.0 0.00 0.00 0.00 51 1020.9
20260505005104 81 0.0 0.0 0.00 0.00 0.00 51 1020.9
20260505004604 81 0.0 0.0 0.00 0.00 0.00 51 1020.8
20260505004105 81 0.0 0.0 0.00 0.00 0.00 52 1020.8
20260505003604 82 0.0 0.0 0.00 0.00 0.00 52 1020.8
20260505003105 81 0.0 0.0 0.00 0.00 0.00 52 1020.7
20260505002604 82 0.0 0.0 0.00 0.00 0.00 52 1020.7
20260505002105 82 0.0 0.0 0.00 0.00 0.00 53 1020.7
20260505001604 82 0.0 0.0 0.00 0.00 0.00 53 1020.7
20260505001107 81 0.0 0.0 0.00 0.00 0.00 53 1020.7
20260505000604 82 0.0 0.0 0.00 0.00 0.00 53 1020.6
20260505000105 81 0.0 0.0 0.00 0.00 0.00 53 1020.6
20260504235604 81 0.0 0.0 0.00 0.00 0.00 54 1020.7
20260504235127 81 0.0 0.0 0.00 0.00 0.00 54 1020.7
20260504234604 81 0.0 0.0 0.00 0.00 0.00 54 1020.7
20260504234105 81 0.0 0.0 0.00 0.00 0.00 54 1020.6
20260504233604 81 0.0 0.0 0.00 0.00 0.00 54 1020.6
20260504233105 81 0.0 0.0 0.00 0.00 0.00 55 1020.6
20260504232604 81 0.0 0.0 0.00 0.00 0.00 55 1020.6
20260504232105 81 0.0 0.0 0.00 0.00 0.00 55 1020.6
20260504231604 81 0.0 0.0 0.00 0.00 0.00 56 1020.5
20260504231105 81 0.0 0.0 0.00 0.00 0.00 56 1020.5
20260504230604 81 0.0 0.0 0.00 0.00 0.00 57 1020.5
20260504230104 81 0.0 0.0 0.00 0.00 0.00 58 1020.5
20260504225604 81 0.0 0.0 0.00 0.00 0.00 58 1020.5
20260504225105 81 0.0 0.0 0.00 0.00 0.00 58 1020.4
20260504224604 81 0.0 0.0 0.00 0.00 0.00 59 1020.4
20260504224105 81 0.0 0.0 0.00 0.00 0.00 60 1020.4
20260504223604 81 0.0 0.0 0.00 0.00 0.00 60 1020.3
20260504223108 81 0.0 0.0 0.00 0.00 0.00 60 1020.1
20260504222604 81 0.0 0.0 0.00 0.00 0.00 60 1020.1
20260504222105 81 0.0 0.0 0.00 0.00 0.00 61 1020.1
20260504221604 81 0.0 0.0 0.00 0.00 0.00 61 1020.1
20260504221104 81 0.0 0.0 0.00 0.00 0.00 60 1020.1
20260504220604 81 0.0 0.0 0.00 0.00 0.00 60 1020.0
20260504220104 81 0.0 0.0 0.00 0.00 0.00 59 1020.0
20260504215604 81 0.0 0.0 0.00 0.00 0.00 59 1019.8
20260504215105 81 0.0 0.0 0.00 0.00 0.00 59 1019.8
20260504214604 81 0.0 0.0 0.00 0.00 0.00 59 1019.8
20260504214104 81 0.0 0.0 0.00 0.00 0.00 59 1019.7
20260504213604 81 0.0 0.0 0.00 0.00 0.00 59 1019.7
20260504213104 81 0.0 0.0 0.00 0.00 0.00 58 1019.7
20260504212604 81 0.0 0.0 0.00 0.00 0.00 58 1019.7
20260504212105 81 0.0 0.0 0.00 0.00 0.00 58 1019.7
20260504211604 81 0.0 0.0 0.00 0.00 0.00 57 1019.6
20260504211104 81 0.0 0.0 0.00 0.00 0.00 56 1019.5
20260504210605 81 0.0 0.0 0.00 0.00 0.00 55 1019.5
20260504210104 81 0.0 0.0 0.00 0.00 0.00 55 1019.4
20260504205604 81 0.0 0.0 0.00 0.00 0.00 56 1019.4
20260504205105 81 0.0 0.0 0.00 0.00 0.00 56 1019.4
20260504204604 81 0.0 0.0 0.00 0.00 0.00 56 1019.3
20260504204104 81 0.0 0.0 0.00 0.00 0.00 56 1019.3
20260504203604 81 0.0 0.0 0.00 0.00 0.00 56 1019.4
20260504203104 80 0.0 0.0 0.00 0.00 0.00 57 1019.3
20260504202604 81 0.0 0.0 0.00 0.00 0.00 56 1019.4
20260504202104 80 0.0 0.0 0.00 0.00 0.00 57 1019.4
20260504201604 81 0.0 0.0 0.00 0.00 0.00 56 1019.4
20260504201104 81 0.0 0.0 0.00 0.00 0.00 56 1019.4
20260504200604 81 0.0 0.0 0.00 0.00 0.00 55 1019.3
20260504200104 80 0.0 0.0 0.00 0.00 0.00 56 1019.2
20260504195604 81 0.0 0.0 0.00 0.00 0.00 56 1019.2
20260504195104 81 0.0 0.0 0.00 0.00 0.00 55 1019.1
20260504194604 81 0.0 0.0 0.00 0.00 0.00 55 1019.1
20260504194104 82 0.0 0.0 0.00 0.00 0.00 54 1019.1
20260504193604 82 0.0 0.0 0.00 0.00 0.00 54 1019.1
20260504193104 81 0.0 0.0 0.00 0.00 0.00 55 1019.1
20260504192604 82 0.0 0.0 0.00 0.00 0.00 53 1019.1
20260504192104 81 0.0 0.0 0.00 0.00 0.00 55 1019.1
20260504191604 82 0.0 0.0 0.00 0.00 0.00 53 1019.1
20260504191104 82 0.0 0.0 0.00 0.00 0.00 54 1019.1
20260504190604 82 0.0 0.0 0.00 0.00 0.00 54 1019.1
20260504190104 82 0.0 0.0 0.00 0.00 0.00 53 1019.1
20260504185604 81 0.0 0.0 0.00 0.00 0.00 54 1019.1
20260504185104 82 0.0 0.0 0.00 0.00 0.00 53 1019.0
20260504184605 83 0.0 0.0 0.00 0.00 0.00 51 1018.9
20260504184104 83 0.0 0.0 0.00 0.00 0.00 52 1018.9
20260504183604 84 0.0 0.0 0.00 0.00 0.00 50 1018.9
20260504183104 82 0.0 0.0 0.00 0.00 0.00 52 1018.9
20260504182604 83 0.0 0.0 0.00 0.00 0.00 52 1018.9
20260504182104 83 0.0 0.0 0.00 0.00 0.00 52 1018.9
20260504181604 83 0.0 0.0 0.00 0.00 0.00 52 1019.0
20260504181104 83 0.0 0.0 0.00 0.00 0.00 52 1018.9
20260504180604 83 0.0 0.0 0.00 0.00 0.00 52 1019.0
20260504180104 81 0.0 0.0 0.00 0.00 0.00 54 1019.1
20260504175604 82 0.0 0.0 0.00 0.00 0.00 53 1019.1
20260504175107 82 0.0 0.0 0.00 0.00 0.00 53 1019.2
20260504174604 82 0.0 0.0 0.00 0.00 0.00 53 1019.3
20260504174104 82 0.0 0.0 0.00 0.00 0.00 53 1019.3
20260504173604 81 0.0 0.0 0.00 0.00 0.00 54 1019.3
20260504173104 82 0.0 0.0 0.00 0.00 0.00 53 1019.3
20260504172604 83 0.0 0.0 0.00 0.00 0.00 51 1019.3
20260504172104 81 0.0 0.0 0.00 0.00 0.00 53 1019.4
20260504171604 83 0.0 0.0 0.00 0.00 0.00 51 1019.5
20260504171104 83 0.0 0.0 0.00 0.00 0.00 50 1019.5
20260504170604 84 0.0 0.0 0.00 0.00 0.00 49 1019.6
20260504170104 84 0.0 0.0 0.00 0.00 0.00 50 1019.7
20260504160104 82 0.0 0.0 0.00 0.00 0.00 51 1020.5
20260504151104 82 0.0 0.0 0.00 0.00 0.00 52 1021.1
20260504150604 81 0.0 0.0 0.00 0.00 0.00 54 1021.2
20260504150105 82 0.0 0.0 0.00 0.00 0.00 52 1021.3
20260504141104 81 0.0 0.0 0.00 0.00 0.00 52 1021.8
20260504140604 80 0.0 0.0 0.00 0.00 0.00 53 1021.9
20260504140104 81 0.0 0.0 0.00 0.00 0.00 52 1021.9
20260504130604 78 0.0 0.0 0.00 0.00 0.00 55 1022.5
20260504130104 78 0.0 0.0 0.00 0.00 0.00 56 1022.6